Weather History for Rexburg, ID

Change the Weather History Date:

Friday, October 4, 2013

  Actual Average Record
Temperature  
Mean Temperature 40 °F 49 °F  
Max Temperature 49 °F 64 °F 74 °F (2003)
Min Temperature 30 °F 34 °F 25 °F (2012)
Degree Days  
Heating Degree Days 25 16  
Month to date heating degree days 85 62  
Since 1 July heating degree days 232 420  
Cooling Degree Days 0 0  
Month to date cooling degree days 0 0  
Year to date cooling degree days 452 208  
Moisture  
Dew Point 24 °F    
Average Humidity 56    
Maximum Humidity 78    
Minimum Humidity 34    
Precipitation  
Precipitation 0.00 in 0.04 in 0.32 in (2008)
Month to date precipitation 0.23 0.14  
Year to date precipitation 6.67 10.02  
Sea Level Pressure  
Sea Level Pressure 30.35 in    
Wind  
Wind Speed 9 mph (NNE)    
Max Wind Speed 21 mph    
Max Gust Speed 29 mph    
Visibility 10 miles    
Events      
T = Trace of Precipitation, MM = Missing Value Source: NWS Daily Summary

Daily Weather History Graph

Daily Weather History Graph

Search for Another Location

Airport:

Trip Planner

Search our weather history database for the weather conditions in past years. The results will help you decide how hot, cold, wet, or windy it might be!

Date:

Astronomy

Oct. 04, 2013 Rise Set
Actual Time 7:28 AM MDT 7:02 PM MDT
Civil Twilight 7:00 AM MDT 7:30 PM MDT
Nautical Twilight 6:26 AM MDT 8:04 PM MDT
Astronomical Twilight 5:53 AM MDT 8:37 PM MDT
Moon 7:08 AM MDT (10/4) 6:45 PM MDT (10/4)
Length of Visible Light 12h 30m
Length of Day
11h 33m
Waning Crescent, 0% of the Moon is Illuminated
Oct 4
Waning Crescent
Oct 4
New
Oct 11
First Quarter
Oct 18
Full
Oct 26
Last Quarter

Hourly Weather History & Observations

Time (MDT) Temp. Windchill Dew Point Humidity Pressure Visibility Wind Dir Wind Speed Gust Speed Precip Events Conditions
12:53 AM 37.0 °F 28.9 °F 23.0 °F 57% 30.17 in 10.0 mi NNE 12.7 mph - N/A   Overcast
1:53 AM 37.0 °F 30.4 °F 24.1 °F 59% 30.19 in 10.0 mi NNE 9.2 mph 19.6 mph N/A   Overcast
2:53 AM 36.0 °F 28.0 °F 24.1 °F 62% 30.21 in 10.0 mi North 11.5 mph - N/A   Overcast
3:53 AM 36.0 °F 28.5 °F 25.0 °F 64% 30.22 in 10.0 mi North 10.4 mph - N/A   Overcast
4:53 AM 36.0 °F 28.5 °F 24.1 °F 62% 30.24 in 10.0 mi North 10.4 mph - N/A   Overcast
5:53 AM 36.0 °F 29.6 °F 24.1 °F 62% 30.27 in 10.0 mi NNE 8.1 mph - N/A   Overcast
6:53 AM 36.0 °F 28.5 °F 21.9 °F 57% 30.30 in 10.0 mi NE 10.4 mph - N/A   Mostly Cloudy
7:53 AM 35.1 °F 26.4 °F 21.9 °F 59% 30.33 in 10.0 mi NE 12.7 mph - N/A   Overcast
8:53 AM 36.0 °F 32.1 °F 24.1 °F 62% 30.34 in 10.0 mi North 4.6 mph - N/A   Partly Cloudy
9:53 AM 39.9 °F 32.1 °F 24.1 °F 53% 30.35 in 10.0 mi NE 13.8 mph 21.9 mph N/A   Clear
10:53 AM 39.9 °F 30.8 °F 24.1 °F 53% 30.38 in 10.0 mi NE 18.4 mph 23.0 mph N/A   Clear
11:53 AM 44.1 °F 38.1 °F 24.1 °F 45% 30.38 in 10.0 mi NE 11.5 mph 20.7 mph N/A   Clear
12:53 PM 46.9 °F - 24.1 °F 41% 30.39 in 10.0 mi North 16.1 mph 23.0 mph N/A   Partly Cloudy
1:53 PM 46.0 °F 41.0 °F 23.0 °F 40% 30.38 in 10.0 mi NNE 10.4 mph 24.2 mph N/A   Mostly Cloudy
2:53 PM 46.9 °F - 21.0 °F 36% 30.37 in 10.0 mi NE 13.8 mph 20.7 mph N/A   Clear
3:53 PM 48.0 °F - 21.9 °F 36% 30.37 in 10.0 mi ENE 10.4 mph - N/A   Clear
4:53 PM 48.9 °F - 21.0 °F 33% 30.37 in 10.0 mi Variable 5.8 mph - N/A   Clear
5:53 PM 46.9 °F - 21.9 °F 37% 30.39 in 10.0 mi Variable 3.5 mph - N/A   Clear
6:53 PM 46.0 °F - 24.1 °F 42% 30.40 in 10.0 mi Calm Calm - N/A   Clear
7:53 PM 41.0 °F 38.0 °F 26.1 °F 55% 30.43 in 10.0 mi North 4.6 mph - N/A   Clear
8:53 PM 37.9 °F 35.5 °F 24.1 °F 57% 30.44 in 10.0 mi East 3.5 mph - N/A   Clear
9:53 PM 36.0 °F 32.1 °F 26.1 °F 67% 30.44 in 10.0 mi NNE 4.6 mph - N/A   Clear
10:53 PM 32.0 °F - 25.0 °F 75% 30.47 in 9.0 mi Calm Calm - N/A   Clear
11:53 PM 30.9 °F 27.5 °F 24.1 °F 76% 30.46 in 10.0 mi East 3.5 mph - N/A   Clear